N3AVN Weather Reports


time (UTC)temp
C
wind
direction
speed
KPH
gust
KPH
rain 1hr
cm
rain 24hr
cm
rain mn
cm
humidity
%
barometer
mb
20260502152022 11 220 0.0 3.2 0.00 0.36 0.36 82 1010.2
20260502151518 11 220 3.2 3.2 0.00 0.36 0.36 83 1010.2
20260502151016 11 132 3.2 4.8 0.00 0.36 0.36 83 1010.0
20260502150513 11 132 3.2 4.8 0.00 0.36 0.36 84 1010.3
20260502130352 10 106 3.2 6.4 0.00 0.36 0.36 94 1010.3
20260502123335 8 60 0.0 3.2 0.00 0.36 0.36 98 1010.5
20260502122832 8 106 4.8 6.4 0.00 0.36 0.36 98 1010.5
20260502122327 8 72 3.2 6.4 0.00 0.36 0.36 98 1010.6
20260502121827 8 135 4.8 9.7 0.00 0.36 0.36 98 1010.8
20260502121323 8 133 4.8 6.4 0.00 0.36 0.36 98 1010.8
20260502120820 8 90 3.2 4.8 0.00 0.36 0.36 98 1010.8
20260502120317 8 109 3.2 3.2 0.00 0.36 0.36 99 1010.7
20260502115814 8 83 1.6 4.8 0.00 0.36 0.36 99 1010.7
20260502115311 8 127 3.2 3.2 0.00 0.36 0.36 99 1010.6
20260502114808 8 160 1.6 3.2 0.00 0.36 0.36 99 1010.6
20260502114304 8 157 0.0 1.6 0.00 0.36 0.36 99 1010.5
20260502113801 8 147 3.2 4.8 0.00 0.36 0.36 99 1010.6
20260502113259 8 114 0.0 3.2 0.00 0.36 0.36 99 1010.7
20260502112757 8 90 0.0 3.2 0.00 0.36 0.36 99 1010.8
20260502112254 8 110 3.2 4.8 0.00 0.36 0.36 99 1010.7
20260502111751 8 108 3.2 3.2 0.00 0.36 0.36 99 1011.0
20260502111249 8 112 3.2 3.2 0.05 0.36 0.36 99 1011.1
20260502110746 8 97 1.6 3.2 0.36 0.36 0.36 99 1011.2
20260502110244 8 125 3.2 4.8 0.61 0.36 0.36 99 1011.1
20260502105742 8 157 0.0 1.6 0.48 0.30 0.30 99 1011.2
20260502105232 8 147 3.2 3.2 0.43 0.25 0.25 99 1010.9
20260502104731 8 194 0.0 1.6 0.43 0.23 0.23 98 1011.0
20260502104228 8 140 1.6 4.8 0.18 0.18 0.18 98 1011.1
20260502103725 8 120 0.0 3.2 0.00 0.15 0.15 98 1010.9
20260502103222 8 173 1.6 3.2 0.00 0.15 0.15 98 1010.7
20260502102720 8 117 0.0 0.0 0.00 0.15 0.15 98 1010.5
20260502102216 8 121 3.2 3.2 0.00 0.15 0.15 98 1010.2
20260502101714 8 90 0.0 3.2 0.00 0.15 0.15 98 1010.0
20260502101212 8 123 1.6 3.2 0.05 0.15 0.15 98 1010.5
20260502100710 8 114 0.0 1.6 0.18 0.15 0.15 98 1010.6
20260502100208 8 107 3.2 3.2 0.36 0.13 0.13 98 1010.4
20260502091142 8 66 0.0 1.6 0.13 0.05 0.05 97 1010.4
20260502090639 8 14 1.6 3.2 0.05 0.05 0.05 97 1010.8
20260502090136 8 99 0.0 3.2 0.00 0.05 0.05 97 1010.6
20260502071533 9 66 0.0 0.0 0.00 0.00 0.00 87 1009.9
20260502071031 9 77 1.6 3.2 0.00 0.00 0.00 87 1010.0
20260502070529 9 157 0.0 3.2 0.00 0.00 0.00 86 1010.1
20260502070028 10 106 0.0 1.6 0.00 0.00 0.00 85 1010.1
20260502065526 10 111 0.0 1.6 0.00 0.00 0.00 84 1010.3
20260502065023 10 166 0.0 1.6 0.00 0.00 0.00 83 1010.4
20260502064521 10 228 3.2 3.2 0.00 0.00 0.00 81 1010.3
20260502064018 10 81 0.0 1.6 0.00 0.00 0.00 79 1010.1
20260502063515 10 72 3.2 4.8 0.00 0.00 0.00 78 1010.0
20260502063013 10 270 4.8 4.8 0.00 0.00 0.00 78 1010.6
20260502062509 10 180 0.0 4.8 0.00 0.00 0.00 78 1010.1
20260502062009 10 127 0.0 3.2 0.00 0.00 0.00 78 1010.3
20260502061506 10 111 1.6 3.2 0.00 0.00 0.00 78 1010.3
20260502061002 10 90 3.2 4.8 0.00 0.00 0.00 78 1010.1
20260502060457 10 144 4.8 6.4 0.00 0.00 0.00 80 1010.4
20260502055954 10 127 4.8 4.8 0.00 0.00 0.00 81 1010.4
20260502055452 10 151 1.6 1.6 0.00 0.00 0.00 82 1010.4
20260502054947 10 97 1.6 1.6 0.00 0.00 0.00 81 1010.1
20260502054444 10 195 0.0 0.0 0.00 0.00 0.00 82 1010.2
20260502053941 10 173 0.0 3.2 0.00 0.00 0.00 80 1010.2
20260502053438 10 101 3.2 3.2 0.00 0.00 0.00 79 1010.0
20260502052936 10 90 3.2 3.2 0.00 0.00 0.00 80 1010.4
20260502052434 10 135 3.2 3.2 0.00 0.00 0.00 80 1010.2
20260502051932 10 113 3.2 3.2 0.00 0.00 0.00 81 1010.3
20260502051430 10 120 0.0 3.2 0.00 0.00 0.00 78 1010.3
20260502050926 10 74 1.6 3.2 0.00 0.00 0.00 76 1010.5
20260502050422 10 180 0.0 0.0 0.00 0.00 0.00 77 1010.6
20260502045920 10 218 3.2 4.8 0.00 0.00 0.00 74 1010.6
20260502045416 11 0 0.0 4.8 0.00 0.00 0.00 74 1010.3
20260502044914 11 184 4.8 6.4 0.00 0.00 0.00 72 1010.6
20260502044409 11 7 0.0 3.2 0.00 0.00 0.00 71 1010.5
20260502043906 11 10 3.2 4.8 0.00 0.00 0.00 70 1010.6
20260502043404 11 228 3.2 6.4 0.00 0.00 0.00 69 1010.2
20260502042903 11 270 1.6 3.2 0.00 0.00 0.00 69 1010.0
20260502042401 11 100 3.2 3.2 0.00 0.00 0.00 69 1010.4
20260502041858 11 66 1.6 1.6 0.00 0.00 0.00 71 1010.3
20260502041355 11 157 0.0 3.2 0.00 0.00 0.00 70 1010.1
20260502040853 11 114 1.6 3.2 0.00 0.00 0.00 70 1010.2
20260502040349 11 180 0.0 4.8 0.00 0.00 0.00 71 1010.3
20260502035845 11 96 3.2 3.2 0.00 0.00 0.00 73 1010.2
20260502035342 11 160 0.0 0.0 0.00 0.00 0.00 72 1010.2
20260502034839 11 160 0.0 3.2 0.00 0.00 0.00 71 1010.1
20260502034338 11 99 0.0 0.0 0.00 0.00 0.00 71 1010.1
20260502033836 11 180 0.0 0.0 0.00 0.00 0.00 69 1009.9
20260502033333 11 90 0.0 3.2 0.00 0.00 0.00 67 1010.2
20260502032830 11 96 3.2 3.2 0.00 0.00 0.00 67 1010.1
20260502032326 11 124 3.2 4.8 0.00 0.00 0.00 67 1010.4
20260502031824 11 100 3.2 3.2 0.00 0.00 0.00 65 1010.5
20260502031322 11 175 0.0 3.2 0.00 0.00 0.00 65 1010.4
20260502030820 11 166 3.2 6.4 0.00 0.00 0.00 64 1010.4
20260502030318 11 353 0.0 3.2 0.00 0.00 0.00 65 1010.5
20260502025815 11 60 0.0 4.8 0.00 0.00 0.00 65 1010.3
20260502025313 11 139 3.2 3.2 0.00 0.00 0.00 67 1010.2
20260502024810 11 99 0.0 3.2 0.00 0.00 0.00 65 1010.3
20260502024308 11 203 0.0 1.6 0.00 0.00 0.00 66 1010.4
20260502023806 11 180 0.0 3.2 0.00 0.00 0.00 63 1010.1
20260502023303 11 180 0.0 3.2 0.00 0.00 0.00 63 1010.1
20260502022800 12 145 0.0 1.6 0.00 0.00 0.00 62 1010.1
20260502022257 12 157 0.0 1.6 0.00 0.00 0.00 61 1010.5
20260502021754 12 188 0.0 1.6 0.00 0.00 0.00 58 1010.3
20260502021251 12 254 1.6 4.8 0.00 0.00 0.00 57 1010.3
20260502020748 13 270 0.0 3.2 0.00 0.00 0.00 55 1010.1
20260502020246 13 236 0.0 3.2 0.00 0.00 0.00 56 1010.2
20260502015743 13 86 3.2 6.4 0.00 0.00 0.00 55 1010.2
20260502015239 13 111 1.6 6.4 0.00 0.00 0.00 55 1010.2
20260502014737 13 315 0.0 3.2 0.00 0.00 0.00 56 1010.2
20260502014233 13 228 3.2 4.8 0.00 0.00 0.00 54 1010.1
20260502013730 13 180 0.0 3.2 0.00 0.00 0.00 55 1010.2
20260502013225 13 101 3.2 3.2 0.00 0.00 0.00 55 1010.1
20260502012722 13 215 1.6 6.4 0.00 0.00 0.00 57 1009.9
20260502012220 12 90 4.8 4.8 0.00 0.00 0.00 56 1009.9
20260502011717 12 195 0.0 4.8 0.00 0.00 0.00 64 1009.9
20260502011213 12 114 3.2 3.2 0.00 0.00 0.00 64 1009.8
20260502010711 12 117 1.6 1.6 0.00 0.00 0.00 67 1009.7
20260502010207 12 172 0.0 0.0 0.00 0.00 0.00 67 1009.7
20260502005704 12 172 0.0 0.0 0.00 0.00 0.00 63 1009.8
20260502005202 12 165 0.0 1.6 0.00 0.00 0.00 62 1009.6
20260502004658 12 337 3.2 3.2 0.00 0.00 0.00 62 1009.5
20260502004154 12 180 0.0 0.0 0.00 0.00 0.00 60 1009.6
20260502003652 12 209 0.0 0.0 0.00 0.00 0.00 60 1009.3
20260502003149 12 203 1.6 1.6 0.00 0.00 0.00 59 1009.1
20260502002645 12 209 0.0 0.0 0.00 0.00 0.00 57 1009.2
20260502002143 12 209 0.0 0.0 0.00 0.00 0.00 57 1009.2
20260502001640 12 209 0.0 0.0 0.00 0.00 0.00 59 1009.1
20260502001138 12 209 0.0 0.0 0.00 0.00 0.00 56 1009.0
20260502000636 12 209 0.0 0.0 0.00 0.00 0.00 58 1009.0
20260502000133 13 209 0.0 0.0 0.00 0.00 0.00 57 1008.8
20260501235629 13 209 0.0 0.0 0.00 0.00 0.00 57 1008.7
20260501235125 13 209 0.0 0.0 0.00 0.00 0.00 54 1008.8
20260501234620 13 209 0.0 0.0 0.00 0.00 0.00 54 1008.6
20260501234118 13 209 0.0 0.0 0.00 0.00 0.00 54 1008.6
20260501233616 13 209 0.0 0.0 0.00 0.00 0.00 57 1008.5
20260501233113 13 209 0.0 0.0 0.00 0.00 0.00 55 1008.5
20260501232609 13 209 0.0 0.0 0.00 0.00 0.00 51 1008.5
20260501232107 14 209 0.0 0.0 0.00 0.00 0.00 53 1008.6
20260501231604 14 209 0.0 0.0 0.00 0.00 0.00 52 1008.2
20260501231102 15 192 0.0 1.6 0.00 0.00 0.00 50 1008.5
20260501230600 15 249 0.0 1.6 0.00 0.00 0.00 49 1008.3
20260501230058 15 114 1.6 3.2 0.00 0.00 0.00 46 1008.1
20260501225555 15 151 0.0 1.6 0.00 0.00 0.00 44 1008.2
20260501225051 15 187 0.0 0.0 0.00 0.00 0.00 43 1008.1
20260501224549 16 187 0.0 0.0 0.00 0.00 0.00 38 1008.1
20260501224046 16 187 0.0 3.2 0.00 0.00 0.00 36 1008.1
20260501223542 16 11 0.0 4.8 0.00 0.00 0.00 38 1008.1
20260501223038 16 209 0.0 4.8 0.00 0.00 0.00 37 1008.0
20260501222535 17 201 3.2 6.4 0.00 0.00 0.00 35 1008.1
20260501222032 17 216 3.2 8.0 0.00 0.00 0.00 36 1008.0
20260501221528 16 135 0.0 4.8 0.00 0.00 0.00 36 1008.1
20260501221026 17 139 3.2 4.8 0.00 0.00 0.00 36 1007.7
20260501220524 16 159 4.8 8.0 0.00 0.00 0.00 35 1008.1
20260501220020 17 157 0.0 6.4 0.00 0.00 0.00 36 1008.0
20260501215517 17 228 3.2 6.4 0.00 0.00 0.00 36 1008.2
20260501215012 17 306 0.0 6.4 0.00 0.00 0.00 35 1008.0
20260501214508 17 249 0.0 3.2 0.00 0.00 0.00 35 1008.2
20260501214004 17 339 3.2 6.4 0.00 0.00 0.00 35 1008.1
20260501213501 17 252 4.8 6.4 0.00 0.00 0.00 35 1008.1
20260501213001 17 240 4.8 12.9 0.00 0.00 0.00 33 1008.1
20260501212458 17 350 4.8 6.4 0.00 0.00 0.00 34 1008.0
20260501211955 17 9 0.0 8.0 0.00 0.00 0.00 36 1008.3
20260501211453 17 7 0.0 4.8 0.00 0.00 0.00 40 1008.3
20260501210950 16 337 1.6 6.4 0.00 0.00 0.00 39 1008.0
20260501210446 17 304 8.0 8.0 0.00 0.00 0.00 34 1008.2
20260501205943 20 305 8.0 8.0 0.00 0.00 0.00 32 1007.9
20260501205440 18 292 3.2 6.4 0.00 0.00 0.00 33 1007.8
20260501204937 18 12 1.6 6.4 0.00 0.00 0.00 32 1008.1
20260501204433 17 275 3.2 6.4 0.00 0.00 0.00 35 1008.0
20260501203929 17 0 0.0 4.8 0.00 0.00 0.00 36 1008.1
20260501203426 17 315 3.2 6.4 0.00 0.00 0.00 35 1008.0
20260501202924 19 249 4.8 6.4 0.00 0.00 0.00 31 1008.4
20260501202421 18 203 1.6 6.4 0.00 0.00 0.00 35 1008.2
20260501201917 18 18 0.0 9.7 0.00 0.00 0.00 35 1007.9
20260501201415 17 219 6.4 8.0 0.00 0.00 0.00 35 1008.1
20260501200911 17 80 8.0 9.7 0.00 0.00 0.00 37 1008.2
20260501200408 17 180 0.0 4.8 0.00 0.00 0.00 35 1008.1
20260501195906 17 106 0.0 6.4 0.00 0.00 0.00 36 1008.1
20260501195401 18 340 8.0 9.7 0.00 0.00 0.00 33 1008.2
20260501194858 17 203 6.4 12.9 0.00 0.00 0.00 33 1008.2
20260501194354 17 337 1.6 16.1 0.00 0.00 0.00 34 1008.2
20260501193850 18 320 4.8 11.3 0.00 0.00 0.00 33 1008.0
20260501193349 17 0 6.4 16.1 0.00 0.00 0.00 35 1008.3
20260501192846 17 358 6.4 11.3 0.00 0.00 0.00 36 1008.2
20260501192343 17 315 3.2 14.5 0.00 0.00 0.00 35 1008.1
20260501191840 17 345 8.0 9.7 0.00 0.00 0.00 35 1008.4
20260501191337 17 303 6.4 16.1 0.00 0.00 0.00 34 1008.5
20260501190834 17 355 3.2 20.9 0.00 0.00 0.00 36 1008.6
20260501190330 17 223 12.9 16.1 0.00 0.00 0.00 33 1008.5
20260501185825 17 311 4.8 12.9 0.00 0.00 0.00 38 1008.6
20260501185321 17 263 8.0 25.7 0.00 0.00 0.00 34 1008.5
20260501184817 17 172 0.0 16.1 0.00 0.00 0.00 35 1008.9
20260501184313 18 309 8.0 9.7 0.00 0.00 0.00 37 1008.8
20260501183809 16 334 4.8 9.7 0.00 0.00 0.00 36 1008.9
20260501183307 16 221 0.0 11.3 0.00 0.00 0.00 36 1008.9
20260501182802 17 199 8.0 12.9 0.00 0.00 0.00 36 1009.0
20260501182259 17 147 3.2 8.0 0.00 0.00 0.00 37 1009.0
20260501181756 17 313 0.0 8.0 0.00 0.00 0.00 34 1009.1
20260501181254 17 26 3.2 16.1 0.00 0.00 0.00 41 1008.9
20260501180751 17 244 8.0 16.1 0.00 0.00 0.00 37 1009.2
20260501180247 16 344 3.2 14.5 0.00 0.00 0.00 38 1009.2
20260501175743 16 324 3.2 24.1 0.00 0.00 0.00 37 1009.1
20260501175241 16 328 3.2 9.7 0.00 0.00 0.00 37 1009.2
20260501174737 16 0 0.0 12.9 0.00 0.00 0.00 39 1009.2
20260501174235 16 315 0.0 11.3 0.00 0.00 0.00 34 1009.3
20260501173733 17 234 4.8 9.7 0.00 0.00 0.00 37 1009.2
20260501173229 16 180 0.0 19.3 0.00 0.00 0.00 35 1009.2
20260501172725 16 255 9.7 27.4 0.00 0.00 0.00 36 1009.2
20260501172220 17 341 6.4 9.7 0.00 0.00 0.00 35 1008.9
20260501171717 16 242 12.9 20.9 0.00 0.00 0.00 36 1009.0
20260501171214 16 210 9.7 20.9 0.00 0.00 0.00 35 1009.1
20260501170711 16 323 9.7 25.7 0.00 0.00 0.00 36 1009.4
20260501170207 16 221 16.1 17.7 0.00 0.00 0.00 33 1009.3
20260501165705 16 29 1.6 12.9 0.00 0.00 0.00 40 1009.2
20260501165202 15 315 3.2 6.4 0.00 0.00 0.00 37 1009.1
20260501164700 17 216 4.8 6.4 0.00 0.00 0.00 40 1009.1
20260501164157 16 322 8.0 14.5 0.00 0.00 0.00 38 1009.2
20260501163653 16 36 4.8 12.9 0.00 0.00 0.00 37 1009.3
20260501163150 16 0 3.2 8.0 0.00 0.00 0.00 38 1009.3
20260501162646 15 327 3.2 11.3 0.00 0.00 0.00 37 1009.3
20260501162143 15 294 3.2 17.7 0.00 0.00 0.00 39 1009.5
20260501161640 15 166 8.0 14.5 0.00 0.00 0.00 40 1009.3
20260501161137 16 3 3.2 4.8 0.00 0.00 0.00 40 1009.4
20260501160633 16 74 6.4 12.9 0.00 0.00 0.00 40 1009.4
20260501160131 16 279 3.2 11.3 0.00 0.00 0.00 40 1009.7
20260501155627 15 45 3.2 19.3 0.00 0.00 0.00 43 1009.5
20260501155125 16 324 4.8 8.0 0.00 0.00 0.00 40 1009.6
20260501154622 15 234 1.6 11.3 0.00 0.00 0.00 41 1009.8
20260501154119 15 266 3.2 11.3 0.00 0.00 0.00 41 1009.8
20260501153616 15 252 14.5 20.9 0.00 0.00 0.00 45 1009.7
20260501153113 15 315 4.8 8.0 0.00 0.00 0.00 41 1009.9